STARLINK-33958 (63850 NORAD) Tracking and Keplerian Element Data

This shows tracking and keplerian element data for the satellite.

Feedback or suggestion? Click here.




ElementValue
Catalog63850
NameSTARLINK-33958
Epoch Orbit3565
Epoch Day354.21307162
Epoch Year2025
RAAN167.0589
Inclination43.0035
Eccentricity0.0002045
Argument of Perigee276.879
Mean Anonmoly83.1829
Mean Motion15.27592799
Decay Rate0.00010926
L11 63850U 25093Q 25354.21307162 .00010926 00000+0 40580-3 0 9999
L22 63850 43.0035 167.0589 0002045 276.8790 83.1829 15.27592799 35651



Live tracking and technical data element details for STARLINK-33958 (NORAD 63850). STARLINK-33958 can be tracked NOW for your location showing map with azimuth and elevation plus other details from your city location.







IsCatalogInMostPopularTable: catalog: 63850, numindb: 2
Update: records affected: 1



GetName: 63850 STARLINK-33958

Hit Count: updated at: Sun, 08 Feb 2026 09:12:57 GMT